Total_Precipitation_Accumulation
0.00 0.00 0.00 0.00 0.00 0.00 0.00 0.00 0.00 0.00 0.00 0.00 0.00 0.00 0.02 0.04 0.03 0.13 0.01 0.00 0.00 0.00 0.00 0.01 0.02 0.04 0.08 0.12 0.31 0.81 1.20 1.51 1.13 0.74 0.33 0.17 0.14 0.22 0.26 0.22 0.23 0.16 0.18 0.12
0.00 0.00 0.00 0.00 0.00 0.00 0.00 0.00 0.00 0.00 0.00 0.00 0.00 0.00 0.01 0.02 0.02 0.05 0.02 0.01 0.00 0.00 0.01 0.02 0.03 0.09 0.14 0.27 0.37 0.41 0.36 0.53 0.21 0.10 0.07 0.12 0.08 0.11 0.18 0.24 0.13 0.12 0.20 0.20
0.00 0.02 0.00 0.00 0.00 0.00 0.00 0.00 0.00 0.00 0.00 0.00 0.00 0.00 0.00 0.01 0.03 0.02 0.03 0.01 0.00 0.00 0.00 0.02 0.09 0.12 0.15 0.15 0.17 0.06 0.06 0.27 0.21 0.08 0.10 0.14 0.23 0.16 0.14 0.28 0.20 0.09 0.18 0.31
0.00 0.00 0.00 0.00 0.00 0.00 0.00 0.00 0.00 0.00 0.00 0.01 0.00 0.01 0.02 0.00 0.01 0.01 0.01 0.01 0.01 0.01 0.01 0.01 0.01 0.02 0.02 0.02 0.03 0.02 0.06 0.13 0.17 0.19 0.23 0.19 0.17 0.17 0.10 0.09 0.06 0.07 0.08 0.10
0.01 0.00 0.00 0.00 0.00 0.00 0.03 0.00 0.00 0.00 0.00 0.01 0.01 0.00 0.01 0.00 0.00 0.00 0.00 0.01 0.00 0.01 0.01 0.00 0.01 0.02 0.01 0.04 0.04 0.09 0.13 0.15 0.12 0.17 0.31 0.19 0.17 0.18 0.18 0.09 0.09 0.08 0.10 0.09
0.00 0.00 0.00 0.00 0.00 0.00 0.00 0.00 0.00 0.00 0.00 0.00 0.01 0.01 0.01 0.01 0.01 0.01 0.00 0.00 0.00 0.02 0.01 0.01 0.02 0.02 0.03 0.11 0.17 0.15 0.13 0.14 0.15 0.21 0.26 0.26 0.18 0.14 0.10 0.08 0.09 0.07 0.05 0.06
0.00 0.00 0.00 0.00 0.00 0.00 0.00 0.00 0.01 0.11 0.04 0.02 0.05 0.06 0.02 0.01 0.01 0.05 0.00 0.00 0.00 0.01 0.01 0.02 0.02 0.06 0.09 0.20 0.21 0.16 0.13 0.11 0.15 0.19 0.26 0.20 0.14 0.09 0.08 0.04 0.04 0.04 0.03 0.03
0.00 0.00 0.00 0.00 0.00 0.01 0.00 0.00 0.02 0.08 0.07 0.07 0.08 0.01 0.01 0.00 0.00 0.00 0.00 0.00 0.00 0.00 0.00 0.01 0.04 0.06 0.10 0.30 0.22 0.10 0.04 0.03 0.05 0.08 0.15 0.13 0.13 0.10 0.08 0.07 0.12 0.06 0.03 0.03
0.00 0.00 0.01 0.00 0.00 0.00 0.02 0.04 0.01 0.01 0.02 0.02 0.01 0.01 0.01 0.01 0.00 0.00 0.00 0.00 0.00 0.00 0.00 0.00 0.02 0.05 0.11 0.22 0.16 0.04 0.01 0.00 0.01 0.02 0.06 0.11 0.14 0.07 0.13 0.31 0.18 0.17 0.08 0.06
0.01 0.03 0.01 0.00 0.00 0.00 0.00 0.02 0.02 0.01 0.01 0.02 0.00 0.01 0.01 0.01 0.00 0.00 0.00 0.00 0.00 0.00 0.00 0.00 0.01 0.02 0.07 0.16 0.16 0.19 0.11 0.02 0.00 0.01 0.04 0.04 0.13 0.15 0.17 0.29 0.14 0.17 0.18 0.23
0.00 0.04 0.05 0.00 0.00 0.00 0.00 0.00 0.00 0.00 0.00 0.04 0.08 0.01 0.00 0.01 0.01 0.00 0.00 0.00 0.00 0.00 0.00 0.00 0.00 0.00 0.04 0.13 0.15 0.20 0.31 0.20 0.07 0.02 0.02 0.04 0.18 0.18 0.28 0.28 0.33 0.32 0.48 0.55
0.00 0.00 0.00 0.01 0.00 0.00 0.00 0.00 0.01 0.01 0.02 0.01 0.03 0.01 0.00 0.00 0.00 0.00 0.00 0.00 0.00 0.00 0.00 0.00 0.00 0.00 0.01 0.10 0.14 0.08 0.25 0.26 0.29 0.18 0.12 0.13 0.30 0.35 0.41 0.56 0.53 0.63 0.78 0.82
0.02 0.03 0.01 0.00 0.00 0.01 0.00 0.00 0.00 0.00 0.00 0.01 0.05 0.01 0.00 0.00 0.00 0.00 0.00 0.00 0.00 0.00 0.00 0.00 0.00 0.00 0.01 0.05 0.12 0.09 0.12 0.15 0.25 0.38 0.40 0.26 0.40 0.40 0.68 0.77 1.02 1.16 1.16 1.25
0.07 0.05 0.02 0.01 0.00 0.00 0.00 0.00 0.00 0.00 0.00 0.00 0.00 0.00 0.00 0.00 0.01 0.00 0.00 0.00 0.00 0.00 0.00 0.00 0.00 0.00 0.04 0.10 0.15 0.15 0.27 0.24 0.31 0.39 0.40 0.32 0.35 0.46 0.59 0.70 0.83 1.22 1.29 1.03
0.08 0.09 0.01 0.01 0.01 0.00 0.00 0.00 0.00 0.00 0.00 0.00 0.00 0.00 0.00 0.00 0.00 0.00 0.00 0.00 0.00 0.00 0.00 0.01 0.01 0.03 0.08 0.14 0.16 0.18 0.25 0.28 0.37 0.42 0.48 0.42 0.56 0.93 0.98 1.04 0.89 0.70 0.49 0.40
0.20 0.12 0.01 0.01 0.00 0.00 0.00 0.00 0.00 0.00 0.00 0.00 0.00 0.00 0.00 0.00 0.00 0.00 0.00 0.00 0.00 0.00 0.00 0.02 0.03 0.03 0.09 0.16 0.14 0.14 0.23 0.27 0.29 0.29 0.30 0.48 0.62 0.54 0.59 0.53 0.39 0.26 0.20 0.21
0.39 0.27 0.16 0.06 0.00 0.03 0.05 0.00 0.00 0.00 0.00 0.00 0.00 0.00 0.00 0.00 0.00 0.00 0.00 0.00 0.00 0.01 0.00 0.02 0.02 0.03 0.04 0.10 0.17 0.19 0.20 0.21 0.20 0.19 0.21 0.28 0.28 0.25 0.20 0.13 0.12 0.17 0.18 0.16
0.33 0.35 0.37 0.19 0.09 0.17 0.03 0.00 0.00 0.00 0.00 0.00 0.00 0.00 0.00 0.00 0.00 0.00 0.00 0.00 0.02 0.02 0.03 0.02 0.00 0.01 0.01 0.05 0.07 0.12 0.11 0.12 0.13 0.12 0.12 0.09 0.07 0.05 0.05 0.10 0.15 0.15 0.15 0.12
0.10 0.22 0.37 0.29 0.19 0.10 0.02 0.01 0.00 0.00 0.00 0.00 0.00 0.02 0.02 0.02 0.02 0.01 0.01 0.03 0.06 0.05 0.04 0.00 0.00 0.00 0.00 0.00 0.01 0.04 0.07 0.07 0.07 0.05 0.05 0.03 0.04 0.06 0.09 0.12 0.14 0.11 0.09 0.11
0.04 0.11 0.31 0.38 0.23 0.07 0.02 0.01 0.01 0.01 0.01 0.01 0.04 0.09 0.14 0.11 0.19 0.12 0.07 0.08 0.06 0.03 0.00 0.00 0.00 0.00 0.00 0.01 0.01 0.01 0.01 0.01 0.02 0.03 0.04 0.05 0.06 0.10 0.14 0.11 0.05 0.05 0.08 0.12
0.21 0.14 0.20 0.23 0.33 0.08 0.01 0.02 0.03 0.20 0.20 0.08 0.14 0.17 0.11 0.16 0.19 0.19 0.18 0.05 0.00 0.00 0.00 0.00 0.00 0.00 0.00 0.01 0.01 0.01 0.01 0.01 0.01 0.03 0.04 0.04 0.05 0.06 0.05 0.04 0.03 0.04 0.05 0.06
0.40 0.60 0.47 0.36 0.43 0.12 0.01 0.08 0.26 0.33 0.15 0.10 0.08 0.06 0.08 0.10 0.19 0.18 0.05 0.02 0.00 0.00 0.00 0.00 0.00 0.00 0.01 0.01 0.00 0.00 0.00 0.00 0.01 0.01 0.02 0.05 0.05 0.03 0.01 0.01 0.01 0.01 0.04 0.05
0.03 0.09 0.20 0.31 0.20 0.05 0.01 0.04 0.04 0.06 0.14 0.10 0.09 0.10 0.16 0.26 0.16 0.04 0.03 0.00 0.00 0.00 0.00 0.00 0.00 0.01 0.01 0.00 0.00 0.00 0.00 0.00 0.01 0.02 0.04 0.04 0.01 0.01 0.00 0.00 0.00 0.01 0.01 0.03
0.05 0.04 0.04 0.05 0.01 0.02 0.05 0.05 0.03 0.06 0.09 0.14 0.22 0.26 0.23 0.11 0.07 0.03 0.02 0.01 0.00 0.00 0.01 0.02 0.03 0.02 0.00 0.00 0.00 0.01 0.01 0.02 0.03 0.03 0.02 0.02 0.01 0.00 0.01 0.02 0.02 0.02 0.03 0.05
0.09 0.11 0.08 0.06 0.02 0.03 0.04 0.08 0.15 0.21 0.32 0.29 0.20 0.15 0.09 0.05 0.02 0.02 0.01 0.01 0.01 0.02 0.04 0.03 0.04 0.04 0.00 0.00 0.00 0.01 0.02 0.02 0.02 0.01 0.01 0.01 0.00 0.03 0.02 0.02 0.03 0.05 0.15 0.18
0.06 0.03 0.06 0.10 0.07 0.23 0.22 0.33 0.42 0.38 0.27 0.15 0.09 0.04 0.02 0.04 0.03 0.02 0.02 0.01 0.02 0.03 0.03 0.04 0.04 0.02 0.01 0.00 0.00 0.01 0.01 0.01 0.01 0.02 0.03 0.04 0.03 0.04 0.05 0.08 0.14 0.16 0.15 0.14